When you browse on this site, cookies collect data to enhance your experience and personalize the content and advertising you see.
Visit our Privacy Policy to learn more. By continuing to use the site, you agree to this use of cookies and data.
  • en France
  • Liste des pays
  • À 7 jours
  • Température de l'eau
  • Carte météo
  • Widgets météo
  • user-avatar
    Se connecter

    Météo par heure à Lyon

    Ce jour, 17 Septembre, Mardi

    Heure Température Précipitation Vent Pression Humidité
    00:00 +22°C° 0 mm 1 m/s 749 mmHg 72%
    01:00 +21°C° 0 mm 1 m/s 749 mmHg 72%
    02:00 +21°C° 0 mm 1 m/s 749 mmHg 73%
    03:00 +20°C° 0 mm 1 m/s 748 mmHg 74%
    04:00 +20°C° 0 mm 1 m/s 748 mmHg 73%
    05:00 +19°C° 0 mm 1 m/s 749 mmHg 73%
    06:00 +19°C° 0 mm 1 m/s 749 mmHg 73%
    07:00 +21°C° 0 mm 1 m/s 748 mmHg 66%
    08:00 +23°C° 0 mm 2 m/s 748 mmHg 60%
    09:00 +24°C° 0 mm 2 m/s 748 mmHg 53%
    10:00 +26°C° 0 mm 2 m/s 748 mmHg 49%
    11:00 +27°C° 0 mm 3 m/s 748 mmHg 46%
    12:00 +28°C° 0 mm 3 m/s 747 mmHg 42%
    13:00 +28°C° 0 mm 3 m/s 747 mmHg 42%
    14:00 +29°C° 0 mm 3 m/s 747 mmHg 42%
    15:00 +29°C° 0 mm 3 m/s 746 mmHg 41%
    16:00 +27°C° 0 mm 3 m/s 747 mmHg 49%
    17:00 +25°C° 0 mm 2 m/s 747 mmHg 56%
    18:00 +23°C° 0 mm 2 m/s 747 mmHg 64%
    19:00 +21°C° 0 mm 2 m/s 747 mmHg 69%
    20:00 +20°C° 0 mm 3 m/s 747 mmHg 74%
    21:00 +19°C° 0 mm 3 m/s 748 mmHg 79%
    22:00 +19°C° 0 mm 3 m/s 748 mmHg 79%
    23:00 +18°C° 0 mm 2 m/s 747 mmHg 80%

    Demain, 18 Septembre, Mercredi

    Heure Température Précipitation Vent Pression Humidité
    00:00 +17°C° 0 mm 2 m/s 747 mmHg 81%
    01:00 +17°C° 0 mm 2 m/s 747 mmHg 81%
    02:00 +16°C° 0 mm 2 m/s 747 mmHg 82%
    03:00 +15°C° 0 mm 2 m/s 747 mmHg 83%
    04:00 +15°C° 0 mm 2 m/s 747 mmHg 82%
    05:00 +15°C° 0 mm 2 m/s 747 mmHg 81%
    06:00 +14°C° 0 mm 2 m/s 748 mmHg 81%
    07:00 +15°C° 0 mm 2 m/s 748 mmHg 77%
    08:00 +16°C° 0 mm 2 m/s 748 mmHg 73%
    09:00 +17°C° 0 mm 2 m/s 748 mmHg 69%
    10:00 +19°C° 0 mm 2 m/s 747 mmHg 65%
    11:00 +20°C° 0 mm 2 m/s 747 mmHg 61%
    12:00 +22°C° 0 mm 3 m/s 747 mmHg 58%
    13:00 +24°C° 0 mm 3 m/s 747 mmHg 56%
    14:00 +24°C° 0 mm 3 m/s 747 mmHg 54%
    15:00 +25°C° 0 mm 3 m/s 747 mmHg 52%
    16:00 +22°C° 0 mm 3 m/s 747 mmHg 55%
    17:00 +20°C° 0 mm 3 m/s 748 mmHg 58%
    18:00 +19°C° 0 mm 3 m/s 748 mmHg 61%
    19:00 +17°C° 0 mm 2 m/s 748 mmHg 62%
    20:00 +16°C° 0 mm 2 m/s 749 mmHg 62%
    21:00 +15°C° 0 mm 2 m/s 749 mmHg 63%
    22:00 +14°C° 0 mm 2 m/s 749 mmHg 63%
    23:00 +13°C° 0 mm 2 m/s 749 mmHg 64%

    Après-demain, 19 Septembre, Jeudi

    Heure Température Précipitation Vent Pression Humidité
    00:00 +12°C° 0 mm 2 m/s 749 mmHg 65%
    01:00 +12°C° 0 mm 2 m/s 749 mmHg 66%
    02:00 +10°C° 0 mm 2 m/s 749 mmHg 68%
    03:00 +9°C° 0 mm 2 m/s 749 mmHg 70%
    04:00 +9°C° 0 mm 2 m/s 750 mmHg 71%
    05:00 +9°C° 0 mm 2 m/s 750 mmHg 72%
    06:00 +8°C° 0 mm 2 m/s 750 mmHg 74%
    07:00 +10°C° 0 mm 2 m/s 750 mmHg 68%
    08:00 +13°C° 0 mm 2 m/s 750 mmHg 62%
    09:00 +15°C° 0 mm 2 m/s 750 mmHg 56%
    10:00 +17°C° 0 mm 2 m/s 750 mmHg 53%
    11:00 +18°C° 0 mm 3 m/s 750 mmHg 50%
    12:00 +20°C° 0 mm 3 m/s 750 mmHg 47%
    13:00 +20°C° 0 mm 3 m/s 750 mmHg 46%
    14:00 +21°C° 0 mm 3 m/s 749 mmHg 46%
    15:00 +21°C° 0 mm 3 m/s 749 mmHg 46%
    16:00 +19°C° 0 mm 2 m/s 749 mmHg 52%
    17:00 +18°C° 0 mm 2 m/s 750 mmHg 57%
    18:00 +16°C° 0 mm 1 m/s 750 mmHg 62%
    19:00 +15°C° 0 mm 1 m/s 750 mmHg 65%
    20:00 +14°C° 0 mm 1 m/s 751 mmHg 68%
    21:00 +13°C° 0 mm 1 m/s 751 mmHg 71%
    22:00 +13°C° 0 mm 1 m/s 751 mmHg 73%
    23:00 +12°C° 0 mm 1 m/s 751 mmHg 75%

    20 Septembre, Vendredi

    Heure Température Précipitation Vent Pression Humidité
    00:00 +10°C° 0 mm 0 m/s 751 mmHg 77%
    01:00 +10°C° 0 mm 0 m/s 751 mmHg 78%
    02:00 +10°C° 0 mm 0 m/s 751 mmHg 79%
    03:00 +10°C° 0 mm 0 m/s 751 mmHg 81%
    04:00 +9°C° 0 mm 0 m/s 751 mmHg 81%
    05:00 +9°C° 0 mm 0 m/s 751 mmHg 82%
    06:00 +9°C° 0 mm 0 m/s 751 mmHg 82%
    07:00 +13°C° 0 mm 1 m/s 751 mmHg 74%
    08:00 +15°C° 0 mm 1 m/s 751 mmHg 67%
    09:00 +19°C° 0 mm 1 m/s 751 mmHg 59%
    10:00 +21°C° 0 mm 1 m/s 750 mmHg 55%
    11:00 +23°C° 0 mm 1 m/s 750 mmHg 52%
    12:00 +25°C° 0 mm 1 m/s 749 mmHg 48%
    13:00 +25°C° 0 mm 1 m/s 749 mmHg 48%
    14:00 +26°C° 0 mm 1 m/s 749 mmHg 47%
    15:00 +27°C° 0 mm 1 m/s 748 mmHg 46%
    16:00 +25°C° 0 mm 1 m/s 748 mmHg 54%
    17:00 +23°C° 0 mm 1 m/s 748 mmHg 61%
    18:00 +21°C° 0 mm 1 m/s 748 mmHg 69%
    19:00 +20°C° 0 mm 1 m/s 749 mmHg 71%
    20:00 +20°C° 0 mm 1 m/s 749 mmHg 73%
    21:00 +18°C° 0 mm 2 m/s 749 mmHg 75%
    22:00 +18°C° 0 mm 2 m/s 749 mmHg 77%
    23:00 +17°C° 0 mm 2 m/s 749 mmHg 78%

    21 Septembre, Samedi

    Heure Température Précipitation Vent Pression Humidité
    00:00 +17°C° 0 mm 2 m/s 749 mmHg 80%
    01:00 +17°C° 0 mm 2 m/s 749 mmHg 81%
    02:00 +16°C° 0 mm 2 m/s 749 mmHg 83%
    03:00 +16°C° 0 mm 2 m/s 748 mmHg 85%
    04:00 +16°C° 0 mm 2 m/s 748 mmHg 85%
    05:00 +15°C° 0 mm 2 m/s 748 mmHg 86%
    06:00 +15°C° 0 mm 2 m/s 748 mmHg 86%
    07:00 +18°C° 0 mm 3 m/s 748 mmHg 76%
    08:00 +20°C° 0 mm 4 m/s 748 mmHg 65%
    09:00 +23°C° 0 mm 4 m/s 748 mmHg 55%
    10:00 +25°C° 0 mm 5 m/s 747 mmHg 51%
    11:00 +27°C° 0 mm 6 m/s 747 mmHg 47%
    12:00 +28°C° 0 mm 6 m/s 747 mmHg 44%
    13:00 +27°C° 0.1 mm 5 m/s 747 mmHg 50%
    14:00 +25°C° 0.1 mm 3 m/s 747 mmHg 55%
    15:00 +24°C° 0.1 mm 2 m/s 746 mmHg 61%
    16:00 +23°C° 0.2 mm 2 m/s 747 mmHg 65%
    17:00 +22°C° 0.2 mm 3 m/s 747 mmHg 68%
    18:00 +21°C° 0.2 mm 3 m/s 747 mmHg 72%
    19:00 +21°C° 0 mm 3 m/s 747 mmHg 71%
    20:00 +21°C° 0 mm 3 m/s 747 mmHg 71%
    21:00 +21°C° 0 mm 3 m/s 747 mmHg 70%
    22:00 +20°C° 0.1 mm 3 m/s 747 mmHg 71%
    23:00 +20°C° 0.1 mm 2 m/s 747 mmHg 71%

    22 Septembre, Dimanche

    Heure Température Précipitation Vent Pression Humidité
    00:00 +20°C° 0.1 mm 2 m/s 747 mmHg 72%
    01:00 +20°C° 0.4 mm 3 m/s 747 mmHg 74%
    02:00 +19°C° 0.4 mm 3 m/s 747 mmHg 76%
    03:00 +19°C° 0.4 mm 3 m/s 747 mmHg 78%
    04:00 +19°C° 0.6 mm 3 m/s 747 mmHg 80%
    05:00 +19°C° 0.6 mm 3 m/s 747 mmHg 83%
    06:00 +18°C° 0.6 mm 3 m/s 747 mmHg 85%
    07:00 +19°C° 0.7 mm 2 m/s 748 mmHg 85%
    08:00 +20°C° 0.7 mm 2 m/s 748 mmHg 84%
    09:00 +20°C° 0.7 mm 2 m/s 749 mmHg 83%
    10:00 +21°C° 0.8 mm 3 m/s 749 mmHg 79%
    11:00 +24°C° 0.8 mm 3 m/s 749 mmHg 75%
    12:00 +25°C° 0.8 mm 3 m/s 749 mmHg 71%
    13:00 +25°C° 0.7 mm 3 m/s 749 mmHg 71%
    14:00 +25°C° 0.7 mm 3 m/s 749 mmHg 71%
    15:00 +25°C° 0.7 mm 3 m/s 749 mmHg 72%
    16:00 +24°C° 1.1 mm 2 m/s 749 mmHg 77%
    17:00 +23°C° 1.1 mm 2 m/s 749 mmHg 81%
    18:00 +21°C° 1.1 mm 2 m/s 750 mmHg 86%
    19:00 +21°C° 0.8 mm 1 m/s 750 mmHg 87%
    20:00 +21°C° 0.8 mm 1 m/s 750 mmHg 88%
    21:00 +21°C° 0.8 mm 1 m/s 751 mmHg 90%
    22:00 +21°C° 0.6 mm 1 m/s 751 mmHg 90%
    23:00 +20°C° 0.6 mm 1 m/s 751 mmHg 91%
    Voir plus